Flag for Bangladesh Weather past 2 weeks in Jessore, Bangladesh

Now
81 °F

Overcast.


Feels Like: 85 °F
Forecast: 75 / 77 °F
Wind: 3 mph from South

Location: Lampang

Current Time: Jul 30, 2015 at 10:54:03 PM

Latest Report: Jul 30, 2015 at 8:00 PM


Visibility: N/A

Pressure: 29.80 "Hg

Humidity: 79%

Dew point: 73 °F

Location of JessoreLocation

Historic Weather in Jessore — Graph

°F

Jessore temperature yesterday

Maximum temperature yesterday: 84 °F (at 12:00 PM)
Minimum temperature yesterday: 73 °F (at 5:00 AM)
Average temperature yesterday: 81 °F

Past Weeks' High & Low Weather Summary

 TemperatureHumidityPressure
High90 °F (Jul 16, 11:00 AM)100% (Jul 16, 10:00 AM)29.92 "Hg (Jul 16, 10:00 AM)
Low73 °F (Jul 24, 5:00 AM)59% (Jul 20, 1:00 PM)29.59 "Hg (Jul 16, 3:00 PM)
Average82 °F81%29.76 "Hg
* Reported Jul 16 5:00 AM — Jul 30 8:00 PM, Jessore, Weather by CustomWeather, © 2015

Note: Actual official high and low records may vary slightly from our data, if they occured in-between our weather recording intervals... More about our weather records

Advertising

Jessore weather history for previous 24 hours

 ConditionsComfort  
Time TempWeatherWind HumidityBarometerVisibility
8:00 PM
Thu, Jul 30
81 °FOvercast.3 mph79%29.80 "HgN/A
7:00 PM81 °FPartly cloudy.3 mph79%29.77 "HgN/A
6:00 PM81 °FPartly cloudy.3 mph79%29.74 "HgN/A
5:00 PM82 °FBroken clouds.6 mph74%29.74 "HgN/A
4:00 PM82 °FBroken clouds.9 mph70%29.77 "HgN/A
3:00 PM84 °FBroken clouds.12 mph66%29.77 "HgN/A
2:00 PM84 °FCloudy.13 mph70%29.80 "HgN/A
1:00 PM86 °FCloudy.10 mph62%29.80 "HgN/A
12:00 PM84 °FCloudy.7 mph74%29.83 "HgN/A
11:00 AM84 °FCloudy.3 mph70%29.83 "HgN/A
10:00 AM82 °FCloudy.3 mph79%29.86 "HgN/A
9:00 AM81 °FCloudy.2 mph79%29.86 "HgN/A
8:00 AM79 °FCloudy.1 mph89%29.86 "HgN/A
7:00 AM79 °FCloudy.1 mph84%29.86 "HgN/A
6:00 AM75 °FCloudy.No wind100%29.83 "HgN/A
5:00 AM75 °FCloudy.No wind94%29.83 "HgN/A
Weather by CustomWeather, © 2015

See weather overviewHow to use our weather pages